EW3670 Weather Reports


Display with metric or nautical units.
time (UTC)temp
F
wind
direction
speed
MPH
gust
MPH
rain 1hr
in
rain 24hr
in
rain mn
in
humidity
%
barometer
mb
20260831141601 62 78 2.0 4.0 0.00 0.00 0.00 90 1019.6
20260831140108 62 44 1.0 5.0 0.00 0.00 0.00 91 1019.6
20260831134609 61 110 0.0 3.0 0.00 0.00 0.00 92 1019.5
20260831133106 61 38 1.0 3.0 0.00 0.00 0.00 92 1019.4
20260831131604 60 0 1.0 2.0 0.00 0.00 0.00 93 1019.4
20260831130137 60 38 1.0 2.0 0.00 0.00 0.00 93 1019.5
20260831124604 59 25 1.0 3.0 0.00 0.00 0.00 94 1019.9
20260831123106 59 105 0.0 2.0 0.00 0.00 0.00 94 1019.8
20260831121608 59 51 0.0 2.0 0.00 0.00 0.00 94 1019.8
20260831120146 58 32 1.0 3.0 0.00 0.00 0.00 94 1019.8
20260831114603 58 61 1.0 4.0 0.00 0.00 0.00 94 1019.7
20260831113102 57 74 1.0 3.0 0.00 0.00 0.00 94 1019.6
20260831111559 57 33 1.0 3.0 0.00 0.00 0.00 93 1019.4
20260831110107 57 59 0.0 4.0 0.00 0.00 0.00 93 1019.6
20260831104600 56 132 0.0 6.0 0.00 0.00 0.00 92 1019.2
20260831103104 57 57 2.0 7.0 0.00 0.00 0.00 91 1018.9
20260831101621 58 98 1.0 3.0 0.00 0.00 0.00 89 1018.9
20260831100108 58 0 1.0 2.0 0.00 0.00 0.00 89 1019.1
20260831094609 58 36 0.0 2.0 0.00 0.00 0.00 90 1018.9
20260831093101 58 34 0.0 2.0 0.00 0.00 0.00 90 1018.8
20260831091606 58 33 1.0 2.0 0.00 0.00 0.00 89 1018.6
20260831090123 59 43 0.0 3.0 0.00 0.00 0.00 89 1018.6
20260831084558 59 0 0.0 2.0 0.00 0.00 0.00 89 1018.7
20260831083105 59 0 1.0 2.0 0.00 0.00 0.00 89 1018.8
20260831081605 60 0 1.0 3.0 0.00 0.00 0.00 89 1018.9
20260831080100 60 42 2.0 3.0 0.00 0.00 0.00 89 1018.8
20260831074600 60 74 0.0 2.0 0.00 0.00 0.00 90 1018.6
20260831073114 60 0 0.0 2.0 0.00 0.00 0.00 90 1018.6
20260831071608 61 27 0.0 2.0 0.00 0.00 0.00 90 1018.5
20260831070134 61 44 0.0 2.0 0.00 0.00 0.00 91 1018.7
20260831064604 61 44 0.0 2.0 0.00 0.00 0.00 92 1018.5
20260831063107 61 0 0.0 1.0 0.00 0.00 0.00 91 1018.5
20260831061610 61 0 0.0 0.0 0.00 0.00 0.00 91 1018.5
20260831060111 62 0 0.0 2.0 0.00 0.00 0.00 91 1018.4
20260831054606 62 0 0.0 2.0 0.00 0.00 0.00 91 1018.5
20260831053105 63 44 0.0 1.0 0.00 0.00 0.00 91 1018.4
20260831051618 63 0 0.0 0.0 0.00 0.00 0.00 90 1018.3
20260831050106 63 0 1.0 2.0 0.00 0.00 0.00 90 1018.3
20260831044604 63 0 0.0 2.0 0.00 0.00 0.00 90 1018.3
20260831043108 63 0 0.0 0.0 0.00 0.00 0.00 90 1018.4
20260831041607 64 0 0.0 0.0 0.00 0.00 0.00 89 1018.3
20260831040106 64 0 0.0 0.0 0.00 0.00 0.00 89 1018.1
20260831034606 64 0 0.0 0.0 0.00 0.00 0.00 88 1018.2
20260831033103 65 0 0.0 0.0 0.00 0.00 0.00 88 1018.1
20260831031558 65 0 0.0 4.0 0.00 0.00 0.00 87 1018.1
20260831024616 65 0 0.0 1.0 0.00 0.00 0.00 89 1017.7
20260831023110 65 0 0.0 0.0 0.00 0.00 0.00 89 1017.7
20260831021605 66 0 0.0 2.0 0.00 0.00 0.00 88 1017.5
20260831020103 66 0 0.0 4.0 0.00 0.00 0.00 87 1017.4
20260831014602 66 254 0.0 2.0 0.00 0.00 0.00 87 1017.3
20260831013106 66 0 0.0 2.0 0.00 0.00 0.00 88 1017.1
20260831011604 67 0 0.0 2.0 0.00 0.00 0.00 87 1016.8
20260831010134 67 274 1.0 3.0 0.00 0.00 0.00 85 1016.7
20260831004613 68 262 1.0 2.0 0.00 0.00 0.00 84 1016.6
20260831003110 68 266 2.0 4.0 0.00 0.00 0.00 84 1016.5
20260831001609 69 0 0.0 4.0 0.00 0.00 0.00 83 1016.2
20260831000100 69 257 0.0 4.0 0.00 0.00 0.00 82 1016.1
20260830234605 70 316 2.0 5.0 0.00 0.00 0.00 80 1016.1
20260830233104 70 299 1.0 5.0 0.00 0.00 0.00 79 1016.2
20260830231601 71 287 2.0 7.0 0.00 0.00 0.00 77 1016.0
20260830230100 72 285 2.0 8.0 0.00 0.00 0.00 75 1015.8
20260830224609 72 244 2.0 6.0 0.00 0.00 0.00 73 1015.5
20260830223104 73 283 1.0 9.0 0.00 0.00 0.00 72 1015.5
20260830221600 73 292 1.0 9.0 0.00 0.00 0.00 72 1015.5
20260830220121 74 269 2.0 7.0 0.00 0.00 0.00 70 1015.2
20260830214605 74 292 2.0 10.0 0.00 0.00 0.00 70 1015.1
20260830213103 74 331 3.0 8.0 0.00 0.00 0.00 71 1015.1
20260830211604 74 283 3.0 11.0 0.00 0.00 0.00 72 1015.2
20260830210106 73 259 2.0 9.0 0.00 0.00 0.00 73 1015.2
20260830204600 72 265 0.0 6.0 0.00 0.00 0.00 75 1015.0
20260830203119 72 323 3.0 9.0 0.00 0.00 0.00 76 1015.0
20260830201601 72 315 2.0 8.0 0.00 0.00 0.00 74 1015.1
20260830200104 74 263 3.0 9.0 0.00 0.00 0.00 68 1015.0
20260830194602 73 246 2.0 8.0 0.00 0.00 0.00 70 1015.1
20260830193058 74 251 3.0 11.0 0.00 0.00 0.00 69 1015.1
20260830191601 74 259 1.0 9.0 0.00 0.00 0.00 69 1015.1
20260830190103 74 304 2.0 11.0 0.00 0.00 0.00 67 1015.2
20260830184558 74 294 5.0 10.0 0.00 0.00 0.00 68 1015.4
20260830183124 75 248 2.0 7.0 0.00 0.00 0.00 69 1015.4
20260830181623 72 284 2.0 8.0 0.00 0.00 0.00 74 1015.5
20260830180111 72 328 2.0 8.0 0.00 0.00 0.00 74 1015.7
20260830174601 71 254 2.0 7.0 0.00 0.00 0.00 76 1015.7
20260830173138 72 248 3.0 10.0 0.00 0.00 0.00 75 1016.0
20260830171606 71 234 2.0 7.0 0.00 0.00 0.00 76 1016.0
20260830170059 70 275 1.0 8.0 0.00 0.00 0.00 78 1016.0
20260830164609 69 224 1.0 7.0 0.00 0.00 0.00 78 1016.1
20260830163104 69 298 1.0 7.0 0.00 0.00 0.00 77 1016.3
20260830161625 69 219 1.0 5.0 0.00 0.00 0.00 77 1016.3
20260830160106 69 291 1.0 7.0 0.00 0.00 0.00 77 1016.3
20260830154601 69 181 1.0 6.0 0.00 0.00 0.00 74 1016.1
20260830153101 70 203 1.0 10.0 0.00 0.00 0.00 73 1016.0
20260830151603 70 202 1.0 8.0 0.00 0.00 0.00 72 1016.4
20260830150104 70 325 2.0 9.0 0.00 0.00 0.00 75 1016.2
20260830144604 69 224 2.0 7.0 0.00 0.00 0.00 75 1016.3
20260830143105 69 225 1.0 6.0 0.00 0.00 0.00 77 1016.2